Location: *
(41.0833°N, 73.4167°W)
Time: 05:15:39
(UTC+00:00)

Cosmos 2327 Rocket - Pass Details

Date: 22 October 2019
Orbit: 943 x 1009 km, 83.0° (Epoch: 11 November)

Event Time Altitude Azimuth Distance (km) Brightness Sun altitude
Rises 08:59:10 0° 185° (S) 3,670 7.4 -25.8°
Reaches altitude 10° 09:01:41 10° 185° (S) 2,716 6.7 -25.3°
Maximum altitude 09:07:54 90° 99° (E) 971 4.4 -24.2°
Drops below altitude 10° 09:14:05 10° 7° (N) 2,691 6.9 -23.0°
Sets 09:16:34 0° 8° (N) 3,634 7.7 -22.6°
